Starlink 1843

operational
NORAD ID: 47133 Int'l Des: 2020-088 Owner: SPXS Country: US Constellation: starlink
LEOCIRCULARSTARLINK_TYPE

Über Starlink 1843

Beschreibung wird geladen...

Live-Position

3D-Globus wird geladen...

Nächste Überflüge

Höhenverlauf

Altitude vs Time

uPlot chart will show altitude changes over time

Zweizeiliger Elementsatz

1 47133U 20088M 26035.83334490 .00263966 00000-0 21747-2 0 9991
2 47133 53.0491 47.6063 0006186 274.8492 193.9611 15.69017744 5868
Epoch: 4. Feb. 2026 • Age: 7 hours

Aktueller Status

Höhe 366.2 km
Geschwindigkeit 7.69 km/s
Subsatellitenpunkt -25.69°S, 155.86°W
Startdatum 25. Nov. 2020
Alter 5.1 years
Typ internet

Technische Details

Klassifizierung Payload
Masse 260.00 kg
Trockenmasse 248.00 kg
Gesamtmasse 260.00 kg
Länge 0.20 m
Durchmesser 2.80 m
Spannweite 9.00 m
Form Box + pan
Hersteller SPXS
Bus-Typ Starlink
Phasenstatus In Orbit
Besitzer/Staat SPXS/US

Große Konstellationen

Loading constellations...